Weather History for Antalya, Turkey

Change the Weather History Date:

Thursday, November 7, 2013

  Actual Average Record
Temperature  
Mean Temperature 63 °F -  
Max Temperature 68 °F 68 °F 78 °F (1998)
Min Temperature 58 °F 50 °F 42 °F (2006)
Degree Days  
Heating Degree Days 2    
Growing Degree Days 13 (Base 50)    
Moisture  
Dew Point 56 °F    
Average Humidity 80    
Maximum Humidity 94    
Minimum Humidity 56    
Precipitation  
Precipitation 0.00 in 0.22 in - ()
Sea Level Pressure  
Sea Level Pressure 29.91 in    
Wind  
Wind Speed 5 mph ()    
Max Wind Speed 13 mph    
Max Gust Speed 21 mph    
Visibility 6.1 miles    
Events Rain , Thunderstorm    
Averages and records for this station are not official NWS values.
T = Trace of Precipitation, MM = Missing Value Source: Averaged Metar Reports

Daily Weather History Graph

Daily Weather History Graph

Search for Another Location

Airport:

Trip Planner

Search our weather history database for the weather conditions in past years. The results will help you decide how hot, cold, wet, or windy it might be!

Date:

Astronomy

Nov. 07, 2013 Rise Set
Actual Time 6:26 AM EET 4:53 PM EET
Civil Twilight 5:59 AM EET 5:20 PM EET
Nautical Twilight 5:28 AM EET 5:51 PM EET
Astronomical Twilight 4:58 AM EET 6:22 PM EET
Moon 10:16 AM EET (11/7) 8:43 PM EET (11/7)
Length of Visible Light 11h 21m
Length of Day
10h 26m
Waxing Crescent, 19% of the Moon is Illuminated
Nov 7
Waxing Crescent
Nov 10
First Quarter
Nov 17
Full
Nov 25
Last Quarter
Dec 3
New

Hourly Weather History & Observations

Time (EET) Temp. Dew Point Humidity Pressure Visibility Wind Dir Wind Speed Gust Speed Precip Events Conditions
12:03 AM 59.0 °F 55.4 °F 88% 29.89 in 0.6 mi Variable 8.1 mph 20.7 mph N/A Rain , Thunderstorm Heavy Thunderstorms and Rain
12:10 AM 59.0 °F 57.2 °F 94% 29.92 in 3.7 mi Variable 4.6 mph - N/A Rain , Thunderstorm Thunderstorms and Rain
12:20 AM 59.0 °F 57.2 °F 94% 29.92 in 3.7 mi SSW 6.9 mph - N/A Rain , Thunderstorm Thunderstorms and Rain
12:34 AM 59.0 °F 57.2 °F 94% 29.92 in 6.2 mi SSW 6.9 mph - N/A Rain , Thunderstorm Light Thunderstorms and Rain
12:50 AM 59.0 °F 55.4 °F 88% 29.86 in 6.2 mi Variable 1.2 mph - N/A Rain , Thunderstorm Light Thunderstorms and Rain
1:20 AM 60.8 °F 57.2 °F 88% 29.89 in 6.2 mi Variable 2.3 mph - N/A Rain , Thunderstorm Light Thunderstorms and Rain
1:50 AM 60.8 °F 59.0 °F 94% 29.89 in 6.2 mi Variable 2.3 mph - N/A Rain , Thunderstorm Light Thunderstorms and Rain
2:00 AM 61 °F 58 °F 88% 29.89 in 12 mi NNW 2.3 mph - - Rain , Thunderstorm Thunderstorms and Rain
2:20 AM 60.8 °F 57.2 °F 88% 29.89 in 6.2 mi Variable 3.5 mph - N/A Rain , Thunderstorm Light Thunderstorms and Rain
2:50 AM 60.8 °F 57.2 °F 88% 29.86 in 6.2 mi NNE 4.6 mph - N/A Rain , Thunderstorm Light Thunderstorms and Rain
3:20 AM 60.8 °F 57.2 °F 88% 29.89 in 6.2 mi North 9.2 mph - N/A Rain , Thunderstorm Light Thunderstorms and Rain
3:50 AM 59.0 °F 57.2 °F 94% 29.86 in 6.2 mi NNW 10.4 mph - N/A Rain , Thunderstorm Light Thunderstorms and Rain
4:20 AM 59.0 °F 57.2 °F 94% 29.86 in 6.2 mi NNW 10.4 mph - N/A Rain , Thunderstorm Light Thunderstorms and Rain
4:50 AM 59.0 °F 57.2 °F 94% 29.89 in 6.2 mi NW 4.6 mph - N/A Rain , Thunderstorm Light Thunderstorms and Rain
5:20 AM 59.0 °F 57.2 °F 94% 29.86 in 6.2 mi NNW 6.9 mph - N/A Rain , Thunderstorm Light Thunderstorms and Rain
5:50 AM 59.0 °F 57.2 °F 94% 29.86 in 6.2 mi North 5.8 mph - N/A Rain , Thunderstorm Light Thunderstorms and Rain
6:20 AM 59.0 °F 57.2 °F 94% 29.86 in 6.2 mi North 6.9 mph - N/A   Mostly Cloudy
6:50 AM 59.0 °F 57.2 °F 94% 29.86 in 6.2 mi NNW 8.1 mph - N/A   Mostly Cloudy
7:20 AM 60.8 °F 57.2 °F 88% 29.89 in 6.2 mi North 8.1 mph - N/A   Mostly Cloudy
7:50 AM 60.8 °F 57.2 °F 88% 29.89 in 6.2 mi North 4.6 mph - N/A   Mostly Cloudy
8:00 AM 61 °F 57 °F 81% 29.88 in 6 mi North 4.6 mph - -   Partly Cloudy
8:20 AM 60.8 °F 57.2 °F 88% 29.92 in 6.2 mi Variable 2.3 mph - N/A   Mostly Cloudy
8:50 AM 60.8 °F 57.2 °F 88% 29.92 in 6.2 mi Variable 2.3 mph - N/A   Mostly Cloudy
9:20 AM 60.8 °F 57.2 °F 88% 29.95 in 6.2 mi SE 6.9 mph - N/A   Mostly Cloudy
9:50 AM 60.8 °F 57.2 °F 88% 29.95 in 6.2 mi SE 9.2 mph - N/A Rain Light Rain Showers
10:20 AM 60.8 °F 57.2 °F 88% 29.95 in 6.2 mi NE 9.2 mph - N/A Rain Light Rain Showers
10:42 AM 60.8 °F 57.2 °F 88% 29.95 in 6.2 mi NNE 9.2 mph - N/A   Mostly Cloudy
10:50 AM 60.8 °F 57.2 °F 88% 29.95 in 6.2 mi NNE 6.9 mph - N/A   Mostly Cloudy
11:20 AM 60.8 °F 57.2 °F 88% 29.95 in 6.2 mi North 5.8 mph - N/A   Mostly Cloudy
11:50 AM 62.6 °F 57.2 °F 82% 29.92 in 6.2 mi NNE 6.9 mph - N/A   Mostly Cloudy
12:20 PM 64.4 °F 55.4 °F 73% 29.92 in 6.2 mi WNW 3.5 mph - N/A   Mostly Cloudy
12:50 PM 64.4 °F 55.4 °F 73% 29.92 in 6.2 mi WSW 5.8 mph - N/A   Mostly Cloudy
1:20 PM 66.2 °F 53.6 °F 64% 29.92 in 6.2 mi WSW 5.8 mph - N/A   Mostly Cloudy
1:50 PM 66.2 °F 53.6 °F 64% 29.92 in 6.2 mi SW 5.8 mph - N/A   Mostly Cloudy
2:00 PM 66 °F 54 °F 56% 29.93 in 6 mi SW 5.8 mph - -   Partly Cloudy
2:20 PM 66.2 °F 53.6 °F 64% 29.92 in 6.2 mi SSW 4.6 mph - N/A   Mostly Cloudy
2:50 PM 68.0 °F 51.8 °F 56% 29.92 in 6.2 mi SSW 3.5 mph - N/A   Mostly Cloudy
3:20 PM 68.0 °F 51.8 °F 56% 29.92 in 6.2 mi Variable 2.3 mph - N/A   Mostly Cloudy
3:50 PM 66.2 °F 55.4 °F 68% 29.92 in 6.2 mi WNW 3.5 mph - N/A   Mostly Cloudy
4:20 PM 66.2 °F 53.6 °F 64% 29.92 in 6.2 mi Variable 2.3 mph - N/A   Mostly Cloudy
4:50 PM 66.2 °F 53.6 °F 64% 29.92 in 6.2 mi NW 3.5 mph - N/A   Mostly Cloudy
5:20 PM 64.4 °F 55.4 °F 73% 29.92 in 6.2 mi NW 5.8 mph - N/A   Mostly Cloudy
5:50 PM 62.6 °F 55.4 °F 77% 29.92 in 6.2 mi WNW 3.5 mph - N/A   Mostly Cloudy
6:20 PM 60.8 °F 55.4 °F 82% 29.92 in 6.2 mi NNW 5.8 mph - N/A   Mostly Cloudy
6:50 PM 60.8 °F 55.4 °F 82% 29.92 in 6.2 mi NW 6.9 mph - N/A   Mostly Cloudy
7:20 PM 60.8 °F 53.6 °F 77% 29.92 in 6.2 mi NNW 6.9 mph - N/A   Mostly Cloudy
7:50 PM 60.8 °F 55.4 °F 82% 29.92 in 6.2 mi NNW 5.8 mph - N/A   Mostly Cloudy
8:00 PM 61 °F 55 °F 74% 29.92 in 6 mi NNW 5.8 mph - -   Mostly Cloudy
8:20 PM 62.6 °F 53.6 °F 72% 29.92 in 6.2 mi NW 6.9 mph - N/A   Mostly Cloudy
8:50 PM 62.6 °F 53.6 °F 72% 29.92 in 6.2 mi North 3.5 mph - N/A   Mostly Cloudy
9:20 PM 62.6 °F 53.6 °F 72% 29.92 in 6.2 mi NW 6.9 mph - N/A   Mostly Cloudy
9:50 PM 62.6 °F 53.6 °F 72% 29.92 in 6.2 mi NW 6.9 mph - N/A   Mostly Cloudy
10:20 PM 64.4 °F 53.6 °F 68% 29.92 in 6.2 mi NW 6.9 mph - N/A   Mostly Cloudy
10:50 PM 64.4 °F 53.6 °F 68% 29.92 in 6.2 mi NW 8.1 mph - N/A   Mostly Cloudy
11:20 PM 66.2 °F 51.8 °F 60% 29.92 in 6.2 mi NNW 12.7 mph - N/A   Mostly Cloudy
11:50 PM 64.4 °F 53.6 °F 68% 29.92 in 6.2 mi NNW 10.4 mph - N/A   Mostly Cloudy